GFSSGP_prec_cloud_231.txt.gz
Cloud_Cover
100 96 99 91 100 100 100 54 92 100 100 100 100 100 66 83 5 4 0 0 0 0 0 4 5 10 5 6 23 69 100 82 17 85 89 45 88 13 6 5 17 97 97 100 39 46 79 14 5
100 100 100 83 88 91 96 73 56 20 88 92 64 58 59 90 28 90 28 0 0 0 0 5 5 1 0 5 5 34 100 100 95 61 99 100 86 44 59 95 38 5 5 26 76 54 34 10 5
100 100 93 96 100 100 79 42 9 28 93 92 100 100 100 96 100 48 0 0 0 0 0 0 5 0 4 5 5 99 85 100 40 5 10 15 5 15 77 17 90 11 12 6 6 100 6 9 32
100 100 100 100 100 84 94 42 34 6 95 100 78 97 98 13 68 0 0 0 0 0 0 2 3 0 0 2 4 5 5 67 52 9 5 6 5 91 100 100 100 50 51 37 46 9 5 6 32
100 95 100 97 70 25 48 44 28 16 93 90 100 100 100 6 25 0 0 0 0 4 0 0 0 0 0 1 0 0 1 46 40 21 6 5 46 79 86 100 100 100 100 76 63 100 37 54 15
100 91 100 100 100 100 64 21 58 17 61 80 100 99 84 11 5 0 0 0 0 0 0 4 0 0 0 0 0 0 3 4 5 8 5 5 96 82 5 48 94 94 34 43 90 38 100 100 92
100 100 100 100 100 70 98 99 74 56 50 79 57 98 83 11 10 8 0 1 0 0 0 0 0 0 0 0 0 2 4 5 6 13 32 85 24 42 23 40 100 100 100 48 79 96 52 53 100
100 100 100 100 100 100 85 52 100 28 55 66 57 82 100 65 5 33 0 0 0 0 0 1 0 0 0 0 0 0 4 8 46 100 100 67 8 96 97 99 100 100 100 99 100 91 100 80 85
100 100 100 91 99 100 100 30 28 65 89 93 100 35 93 74 12 10 5 28 35 14 3 0 0 0 0 0 0 0 0 2 39 94 68 5 75 8 5 70 100 95 87 13 84 100 100 100 100
100 100 100 100 100 95 100 98 84 100 99 69 84 91 62 61 89 63 5 30 38 20 2 1 0 0 4 0 0 0 0 3 5 44 79 5 6 82 5 6 10 0 0 2 10 98 100 93 94
100 78 100 100 99 100 100 100 100 100 100 100 79 33 98 88 97 40 27 28 0 0 0 0 0 0 0 0 4 5 6 5 4 13 5 32 72 57 5 0 0 4 0 0 0 0 19 17 0
100 100 97 96 100 100 100 100 100 100 100 100 100 54 63 89 60 57 5 5 0 0 0 0 0 0 0 0 1 4 1 23 14 5 4 2 7 41 0 0 0 0 0 1 0 0 0 0 0
10 100 96 56 98 100 100 100 100 100 100 100 87 55 60 58 51 44 5 4 6 2 0 0 0 0 0 0 0 0 4 5 26 7 3 4 1 0 0 0 0 0 0 0 0 0 0 0 0
5 8 58 100 100 100 100 100 100 100 100 100 87 100 29 70 99 59 5 20 8 81 0 0 0 0 0 0 0 0 0 0 3 3 0 0 0 0 0 0 0 3 0 0 0 0 0 0 0
5 88 2 4 8 100 100 100 100 100 100 100 100 100 40 86 75 95 11 40 6 83 1 0 0 0 0 0 0 0 0 0 0 0 1 0 0 0 0 0 0 0 0 0 0 0 0 0 0
95 5 0 3 5 60 99 100 90 90 100 100 100 85 33 100 100 100 35 72 10 7 4 0 0 0 0 0 0 0 0 0 0 0 0 0 0 0 0 0 0 0 0 0 0 0 0 0 0
88 23 1 35 15 6 40 85 100 72 14 88 100 99 24 100 100 100 74 87 5 36 0 0 0 0 0 0 0 0 0 0 0 0 32 0 0 0 0 0 0 0 0 0 0 0 0 0 0
12 6 5 34 33 42 5 4 91 19 91 100 94 100 64 49 98 89 99 15 94 68 2 0 0 2 0 0 0 0 0 0 0 5 4 0 0 0 0 0 0 0 0 0 0 0 0 0 0
15 5 5 5 5 5 0 5 48 59 5 96 88 100 100 90 100 99 10 95 24 98 22 47 0 0 0 0 0 0 0 0 0 0 0 0 0 0 0 0 0 0 0 0 0 0 0 0 0
5 5 3 3 5 5 3 4 0 1 70 66 84 100 100 100 94 91 84 63 100 57 100 63 6 0 0 0 0 0 0 0 1 0 0 0 0 0 0 0 0 0 0 0 0 0 0 0 0
8 16 5 5 5 82 17 1 5 2 5 36 75 100 100 100 64 5 98 72 100 86 97 30 25 1 2 0 0 0 0 0 0 0 0 0 0 0 0 0 0 0 0 0 0 0 0 0 0
63 80 59 25 5 18 20 5 5 12 30 97 90 76 88 59 62 88 100 28 100 100 90 5 7 44 0 0 0 0 0 0 0 0 0 0 0 0 0 0 0 0 0 0 0 0 0 0 0
11 91 40 5 27 5 5 1 5 7 32 94 99 6 12 12 47 85 100 52 100 100 100 82 13 5 0 1 3 0 0 0 0 0 0 0 0 0 0 0 0 0 0 0 0 0 0 0 0
63 97 48 5 5 0 4 2 5 4 13 100 19 5 16 41 83 98 80 67 100 98 100 99 4 17 0 1 1 0 0 0 0 0 0 0 0 0 0 0 0 0 0 0 0 0 0 0 0
0 99 98 5 2 1 3 2 5 16 5 88 62 10 24 100 79 100 100 100 100 100 73 30 11 1 3 8 36 0 0 0 0 0 0 0 0 0 0 0 0 0 0 0 0 0 0 0 0
0 10 19 22 0 10 5 15 51 74 5 5 49 70 19 100 100 57 100 100 100 100 100 11 97 1 5 5 47 26 0 0 0 0 0 0 0 0 0 0 0 0 0 0 0 0 0 0 0
0 0 4 55 3 1 3 18 1 5 8 56 85 55 92 100 100 99 100 100 100 100 100 94 94 75 5 15 8 100 3 0 0 0 0 0 0 0 0 0 0 0 0 0 0 0 0 0 0
0 0 11 86 22 2 0 0 1 0 2 2 66 97 74 100 76 26 85 95 100 100 100 100 100 26 100 65 25 37 100 73 4 5 0 0 0 0 0 0 0 0 0 0 0 0 0 0 0
0 0 0 72 76 55 2 0 0 0 0 0 15 24 89 85 100 38 5 100 100 100 100 100 94 95 100 100 30 7 100 100 100 54 3 0 0 0 0 0 0 0 0 0 4 3 0 13 2
0 0 0 5 56 18 3 1 5 0 0 0 0 32 100 100 100 100 89 100 100 100 100 100 100 100 100 100 94 47 5 42 100 22 0 0 0 0 0 0 0 0 0 0 2 2 0 4 9

GFSSGP_prec_cloud_234.txt.gz
Cloud_Cover
100 56 92 92 54 100 64 77 6 92 34 36 88 100 71 7 5 3 2 0 0 0 5 1 0 2 5 16 98 51 100 5 48 45 49 97 100 35 67 100 100 100 100 100 100 100 100 100 89
98 92 79 100 94 100 92 83 72 72 54 27 42 60 74 74 47 86 24 2 0 1 5 1 0 0 5 11 5 26 11 69 69 5 56 29 58 6 11 6 54 91 100 96 78 98 96 23 95
100 94 76 95 100 31 8 44 100 12 50 12 27 72 67 96 51 34 0 2 0 1 4 2 0 4 5 5 43 72 26 5 5 42 20 5 5 6 87 33 27 31 63 7 94 87 13 25 32
100 81 84 99 23 5 10 5 88 12 5 5 85 65 100 97 2 0 20 0 0 1 0 0 1 0 5 5 5 18 7 5 16 5 5 5 16 82 74 80 93 72 49 48 36 76 38 84 100
100 100 70 63 94 97 69 100 99 46 40 80 77 98 100 97 10 0 7 12 4 7 0 0 0 3 4 0 4 7 5 8 48 37 12 67 26 75 98 100 100 77 88 100 100 79 38 51 86
96 65 80 100 100 100 100 55 64 53 53 52 68 100 98 70 74 7 6 0 0 5 0 0 0 0 4 5 0 1 4 11 7 5 14 5 5 42 28 7 8 10 38 24 99 77 95 98 96
100 96 96 80 100 52 100 88 13 75 59 80 9 81 95 98 50 2 0 2 10 0 0 0 2 0 0 0 5 5 6 37 85 98 46 31 15 50 100 100 98 17 82 69 74 96 88 10 7
100 100 81 100 100 67 100 38 76 96 100 100 98 50 99 81 68 8 19 29 11 1 1 2 0 0 8 0 4 5 5 73 5 70 89 94 42 100 100 100 100 100 100 100 72 51 5 5 16
91 100 100 100 69 79 62 98 100 100 100 100 100 100 29 96 70 40 86 86 59 33 19 1 0 15 11 0 0 0 5 5 5 5 8 100 70 100 79 91 29 64 77 84 99 62 83 86 40
100 100 100 100 100 96 82 80 98 100 100 100 99 76 37 30 8 41 97 100 100 57 50 12 0 0 0 0 0 0 0 0 1 4 5 54 80 14 2 0 0 1 2 1 66 64 79 100 72
100 100 75 100 100 100 99 77 97 72 100 79 63 64 19 8 85 5 5 24 17 6 14 10 0 0 0 0 0 2 10 0 0 2 5 4 5 16 0 0 0 0 0 0 0 0 0 0 0
100 100 100 63 99 100 100 100 100 93 100 90 100 6 5 80 100 23 3 5 4 5 0 0 0 0 0 0 0 2 0 3 3 0 0 0 15 0 0 0 0 0 0 0 0 0 0 0 0
100 49 100 38 100 100 100 100 100 100 100 100 100 54 14 55 100 47 5 5 0 4 1 0 0 0 0 0 0 0 0 5 2 0 0 0 0 0 0 0 0 0 0 0 0 0 0 0 0
6 57 38 71 100 100 100 100 100 100 100 100 100 72 21 8 66 100 30 5 0 2 1 0 0 0 0 0 0 0 0 0 0 0 0 0 0 0 0 0 0 0 0 0 0 0 0 0 0
5 5 5 51 100 96 92 100 100 100 100 100 100 15 5 23 55 96 54 20 5 2 4 1 0 0 0 0 0 0 0 0 0 0 0 0 0 0 0 0 0 0 0 0 0 0 0 0 0
1 4 1 5 34 67 75 100 71 82 84 100 100 76 24 94 75 57 96 52 52 5 18 23 0 0 0 0 0 0 0 0 0 0 0 0 0 0 0 0 0 0 0 0 0 0 0 0 0
5 5 0 4 0 1 0 46 46 60 20 81 100 98 30 92 27 56 97 100 96 15 5 76 0 0 0 0 0 0 0 0 0 0 0 0 0 0 0 0 0 0 0 0 0 0 0 0 0
5 5 5 5 0 0 2 3 0 46 70 28 11 25 45 100 100 6 67 87 98 19 41 97 5 0 0 0 0 0 0 0 0 0 0 0 0 0 0 0 0 0 0 0 0 0 0 0 0
14 5 5 5 0 0 0 5 5 60 91 63 5 10 100 100 100 100 100 100 100 92 87 100 5 5 0 0 0 0 0 0 0 0 0 0 0 0 0 0 0 0 0 0 0 0 0 0 0
9 5 50 10 5 0 0 0 0 6 5 64 16 62 100 99 100 100 100 100 100 99 100 100 5 6 63 0 0 0 0 0 0 0 0 0 0 0 0 0 0 0 0 0 0 0 0 0 0
49 7 6 5 5 2 0 0 0 20 22 5 5 5 29 88 100 100 100 100 100 41 100 100 75 5 6 0 0 0 0 0 0 0 0 0 0 0 0 0 0 0 0 0 0 0 0 0 0
13 5 60 5 5 3 4 2 0 0 1 71 12 5 13 68 92 100 100 100 83 24 100 100 100 100 5 2 0 0 0 0 0 0 0 0 0 0 0 0 0 0 0 0 0 0 0 0 0
26 90 71 5 5 4 1 0 5 5 0 0 4 12 27 85 30 100 100 100 27 36 100 98 100 100 13 8 0 0 0 0 0 0 0 0 0 0 0 0 0 0 0 0 0 0 0 0 0
5 100 15 5 16 3 0 0 0 1 4 4 4 5 50 5 10 57 77 96 78 100 100 100 100 100 100 32 29 4 0 0 0 0 0 0 0 0 0 0 0 0 0 0 0 0 0 0 0
5 82 98 60 5 1 26 0 0 0 5 3 4 3 7 58 25 55 76 42 94 71 100 100 100 100 100 100 100 15 78 0 0 0 0 0 0 0 0 0 0 0 0 0 0 0 0 0 0
0 5 9 8 4 0 37 0 0 5 5 5 3 11 49 100 100 92 29 100 100 97 100 67 100 100 100 100 100 23 15 100 24 0 0 0 0 0 0 0 0 0 0 0 0 0 0 0 0
0 0 36 81 80 0 0 2 7 5 0 0 0 0 66 88 70 100 100 99 98 100 83 100 100 100 100 100 100 100 51 59 97 26 0 0 0 0 0 0 0 0 0 0 0 0 0 0 0
0 0 0 0 2 3 0 3 77 4 5 3 1 1 4 31 86 100 100 100 100 100 100 73 100 100 100 100 100 100 100 100 53 94 100 83 8 0 0 0 0 0 0 0 0 0 0 0 0
0 0 0 0 0 0 0 0 100 2 4 3 5 5 21 98 64 52 100 100 100 100 86 100 100 100 98 100 98 100 100 100 100 100 100 99 22 0 0 0 0 0 0 0 0 0 0 0 0
0 0 0 0 0 0 0 0 78 90 7 4 3 5 50 73 99 99 100 100 100 100 100 100 100 100 98 100 100 100 100 100 100 42 61 36 5 4 0 0 0 0 0 0 0 0 0 0 0

GFSSGP_prec_cloud_237.txt.gz
Cloud_Cover
59 94 100 100 100 7 4 28 5 57 58 78 86 14 9 12 0 2 35 8 0 10 24 15 0 4 5 5 5 5 5 5 5 46 100 100 100 100 100 78 23 88 94 97 95 100 100 100 100
33 16 100 100 100 5 2 5 15 16 66 82 77 24 32 54 90 80 23 2 0 14 20 1 0 4 4 5 10 5 23 96 67 30 81 69 28 13 83 100 100 94 96 100 100 100 100 76 66
97 61 100 92 9 5 5 98 56 7 16 13 30 11 52 39 65 7 9 14 8 29 34 18 10 6 5 12 15 92 73 90 98 39 5 48 10 5 32 48 45 5 65 100 100 96 74 76 78
57 64 70 86 5 6 22 58 100 44 13 34 5 12 69 33 5 18 0 12 12 32 29 1 3 7 4 5 5 5 46 6 20 5 34 80 88 83 50 9 99 100 87 99 96 100 6 60 82
100 100 26 5 5 78 91 73 5 94 51 7 19 90 94 28 23 0 0 3 12 25 29 7 4 8 13 4 4 3 5 5 8 8 68 99 100 100 90 24 6 45 5 31 5 5 5 97 98
100 42 96 100 41 72 56 6 24 100 95 55 16 5 98 77 6 0 2 3 28 5 22 6 2 0 1 3 3 5 5 5 27 39 5 39 77 5 5 5 5 5 5 12 7 18 54 38 71
100 96 91 23 5 93 64 32 63 100 100 7 63 5 87 78 5 2 7 11 34 8 34 37 2 9 12 5 5 7 6 23 83 70 73 5 6 85 58 12 5 96 55 5 5 5 5 12 5
93 100 20 32 9 5 49 46 99 64 100 60 5 5 94 36 5 10 24 41 37 15 20 9 11 9 5 5 5 6 5 48 81 47 100 99 100 100 97 100 100 100 100 12 63 6 5 5 5
99 98 100 98 80 10 13 33 76 56 100 91 5 5 5 20 9 3 31 52 6 38 47 1 9 6 4 25 3 5 5 44 78 6 100 100 93 55 8 37 49 97 100 83 50 85 9 11 4
100 88 100 94 33 80 99 54 96 70 100 100 50 5 12 17 4 5 10 1 0 5 10 0 0 0 0 19 28 39 14 55 12 97 39 5 10 3 0 1 26 87 50 100 86 66 62 0 0
100 100 100 87 80 58 63 100 78 100 100 100 41 100 8 9 12 5 8 0 4 1 4 0 0 0 0 8 5 1 6 6 6 7 5 0 0 0 0 4 17 4 0 0 0 0 0 0 0
47 100 95 100 67 91 100 90 100 100 100 100 100 53 5 5 5 5 4 3 1 4 3 0 0 0 0 0 0 0 0 0 3 3 0 0 0 0 0 0 12 7 0 0 0 0 0 0 0
5 66 99 95 92 52 100 100 100 98 99 100 100 9 1 4 10 5 5 7 5 4 5 0 0 0 0 0 0 0 0 0 0 0 0 0 0 0 0 0 0 0 0 0 0 0 0 0 0
5 5 10 52 92 59 100 90 98 100 100 100 100 96 14 4 4 4 5 5 5 3 0 0 0 0 0 0 0 0 0 0 0 0 0 0 0 0 0 0 0 0 0 0 0 0 0 0 0
5 5 5 5 5 100 100 66 99 100 96 100 89 96 61 100 8 12 5 5 0 1 0 0 0 0 0 0 0 0 0 0 0 0 0 0 0 0 0 0 0 0 0 0 0 0 0 0 0
5 5 2 5 3 7 98 100 83 100 100 87 96 77 90 25 80 5 5 10 5 4 1 1 0 0 0 0 0 0 0 0 0 0 0 0 0 0 0 0 0 0 0 0 0 0 0 0 0
5 4 1 0 0 0 8 78 10 9 6 25 99 97 100 100 85 33 7 33 9 4 15 5 0 0 0 0 0 0 0 0 0 0 0 0 0 0 0 0 0 0 0 0 0 0 0 0 0
5 5 0 0 0 0 0 1 4 0 5 19 11 54 100 100 87 72 100 90 100 52 36 5 4 0 2 0 0 0 0 0 0 0 0 0 0 0 0 0 0 0 0 0 0 0 0 0 0
0 5 3 0 0 0 0 0 0 41 6 14 7 5 5 0 0 81 87 100 100 100 19 5 6 5 0 0 0 0 0 0 0 0 0 0 0 0 0 0 0 0 0 0 0 0 0 0 0
1 4 5 5 0 0 0 0 0 0 5 13 78 5 5 44 0 100 73 100 100 96 100 26 5 5 17 0 0 0 0 0 0 0 0 0 0 0 0 0 0 0 0 0 0 0 0 0 0
9 0 5 5 3 0 0 0 0 0 5 5 6 5 5 67 85 42 92 100 100 100 100 67 13 16 100 0 0 0 0 0 0 0 0 0 0 0 0 0 0 0 0 0 0 0 0 0 0
76 6 40 5 5 0 0 0 0 0 5 5 28 8 5 78 60 100 99 100 100 100 100 100 69 100 100 48 0 0 0 0 0 0 0 0 0 0 0 0 0 0 0 0 0 0 0 0 0
5 5 66 6 5 3 0 0 0 0 1 23 58 26 77 72 5 100 24 98 100 100 100 82 82 99 100 100 100 67 0 0 0 0 0 0 0 0 0 0 0 0 0 0 0 0 0 0 0
22 83 8 12 5 54 0 0 0 0 0 0 3 5 35 5 18 93 77 97 100 100 100 100 25 37 100 100 100 100 7 49 1 0 0 0 0 0 0 0 0 0 0 0 0 0 0 0 0
4 75 70 40 34 8 0 0 0 0 0 0 0 0 4 1 7 44 81 56 53 100 100 63 44 100 61 100 100 86 5 75 62 21 0 0 0 0 0 0 0 0 0 0 0 0 0 0 0
0 1 46 5 5 0 5 0 2 3 0 2 0 1 4 9 55 100 76 100 43 66 11 99 100 100 100 100 100 100 99 86 91 84 55 5 0 0 0 0 0 0 0 0 0 0 0 0 0
0 0 0 2 2 0 2 0 5 5 1 5 5 0 0 0 27 75 100 100 99 88 99 100 36 9 70 100 97 100 100 100 100 74 2 98 86 98 3 0 0 0 0 0 0 0 0 0 0
0 0 0 0 0 0 2 0 15 4 5 3 0 0 0 0 5 98 100 100 100 100 100 100 98 69 100 75 64 100 100 100 100 100 54 100 99 100 80 3 0 0 0 0 0 0 0 0 0
0 0 0 0 0 0 0 0 77 17 5 4 0 0 0 0 0 13 92 100 100 100 100 100 100 100 98 6 69 99 100 100 100 100 100 69 100 100 28 37 4 0 0 0 0 0 0 0 0
0 0 0 0 0 0 0 0 0 96 81 76 5 4 5 5 3 13 92 100 100 100 100 100 100 100 100 100 100 47 99 100 100 100 100 100 98 22 92 11 15 0 0 0 0 0 0 0 0

GFSSGP_prec_cloud_240.txt.gz
Cloud_Cover
5 76 95 69 50 59 65 53 96 61 100 59 4 55 35 0 0 13 4 0 6 47 31 16 2 4 5 16 71 94 59 16 100 100 100 92 72 13 10 93 100 100 100 100 100 100 100 100 100
25 71 100 60 46 90 81 45 55 17 51 68 3 15 40 16 0 0 1 0 17 63 91 13 3 5 12 6 47 95 29 68 100 100 100 100 97 36 46 5 59 32 75 80 80 86 100 100 100
19 97 96 54 93 100 42 81 99 22 94 14 5 24 17 3 0 0 0 2 22 25 14 3 5 10 5 5 17 49 17 83 100 100 64 65 80 100 100 25 6 49 7 100 100 100 100 100 73
70 66 40 67 99 14 12 100 100 96 66 80 11 8 1 5 0 0 0 4 11 30 98 1 6 7 5 5 7 4 3 4 18 6 5 8 64 88 89 63 90 44 72 100 80 63 100 99 79
58 76 42 99 82 7 53 99 100 50 48 89 4 1 4 14 0 0 2 1 4 18 10 7 8 2 10 5 6 12 5 6 26 19 35 37 14 17 91 56 76 18 5 14 46 59 8 5 10
81 59 50 100 45 5 31 84 83 74 98 7 5 0 53 11 4 0 5 1 0 24 24 19 3 10 2 0 5 5 6 5 6 99 72 100 63 49 9 5 5 5 5 17 38 36 98 94 61
68 33 35 82 41 51 22 39 29 100 18 83 25 3 4 5 5 0 3 5 0 3 7 7 9 5 4 2 8 6 5 10 8 5 6 10 4 65 3 5 62 28 3 5 5 5 5 5 5
95 93 86 88 92 19 65 5 80 75 100 86 67 6 4 5 22 2 5 0 2 46 49 3 11 5 5 5 5 12 18 43 9 28 8 39 70 31 100 100 24 5 5 4 5 5 5 24 48
10 53 76 53 96 16 5 9 5 100 100 82 92 57 3 5 5 2 1 5 0 15 4 0 4 4 5 10 5 5 7 17 100 100 98 76 15 12 93 100 100 100 7 5 5 4 21 3 3
100 51 97 19 30 99 45 86 15 51 100 100 99 62 4 0 0 0 3 5 0 0 2 3 0 0 5 11 58 55 25 95 75 65 38 61 65 55 100 40 80 100 71 5 4 2 0 6 21
100 88 95 92 19 25 27 9 5 16 100 100 100 7 5 0 0 0 0 5 0 0 3 4 7 17 46 45 72 82 53 97 6 17 6 4 4 84 97 20 14 5 1 0 0 0 4 17 7
94 100 90 89 100 48 99 81 63 69 92 100 100 5 5 5 0 2 0 0 0 0 0 0 2 27 30 33 72 63 7 14 7 13 12 5 32 51 100 100 27 1 6 0 0 0 0 0 0
12 83 98 88 17 67 51 100 100 42 90 100 100 37 65 27 2 0 0 1 3 0 0 0 0 6 4 9 34 42 27 5 1 0 7 98 13 18 17 12 0 0 0 0 0 0 0 0 0
16 5 60 48 100 96 47 100 100 15 65 97 100 20 100 87 86 3 5 0 21 4 0 0 0 0 0 0 13 7 18 0 2 2 0 1 3 0 0 0 0 0 0 0 0 0 0 0 0
5 5 5 6 29 5 90 100 100 32 32 100 100 87 100 0 83 46 5 5 10 5 9 0 0 0 0 6 0 3 0 19 0 0 0 0 0 0 0 0 0 0 0 0 0 0 0 0 0
5 1 38 4 5 0 4 79 100 100 67 96 71 100 3 49 67 95 46 60 5 80 5 2 0 3 0 1 2 10 1 39 0 0 0 0 0 0 0 0 0 0 0 0 0 0 0 0 0
4 94 14 0 0 0 0 82 3 100 95 60 38 43 5 5 7 91 82 100 95 98 62 7 2 0 0 0 2 2 0 30 0 0 0 0 0 0 0 0 0 0 0 0 0 0 0 0 0
5 6 5 2 0 0 0 9 15 2 11 83 9 52 100 99 17 100 51 100 98 98 100 6 28 0 0 0 0 0 1 46 6 0 14 0 0 0 0 0 0 0 0 0 0 0 0 0 0
2 53 64 0 0 0 0 0 19 10 18 96 60 33 5 4 0 0 1 4 100 100 100 100 5 3 2 0 0 7 0 46 60 56 0 0 0 0 0 0 0 0 0 0 0 0 0 0 0
5 12 63 2 0 0 0 0 0 0 4 4 28 81 7 5 2 0 0 4 35 99 100 100 14 5 52 0 2 29 64 6 31 8 0 0 0 0 0 0 0 0 0 0 0 0 0 0 0
64 5 42 45 0 0 0 1 0 0 0 3 30 40 28 22 5 1 0 93 20 79 100 100 86 34 10 71 1 2 31 21 0 0 0 0 0 0 0 0 0 0 0 0 0 0 0 0 0
17 62 6 28 4 53 0 86 5 0 0 0 5 8 7 25 44 89 2 1 3 92 100 100 29 98 32 100 100 33 1 0 0 0 0 0 0 2 0 0 0 0 0 0 0 0 0 0 0
5 98 5 5 5 45 4 4 72 2 0 0 3 55 5 5 57 99 40 100 72 22 94 16 9 100 76 100 100 100 6 0 0 0 0 0 0 0 0 0 0 0 0 0 0 0 0 0 0
5 32 5 5 9 24 6 5 6 11 0 2 5 5 5 5 95 55 88 86 58 8 100 100 100 100 39 100 100 95 12 56 1 0 0 0 0 0 0 0 0 0 0 0 0 0 0 0 0
5 26 5 9 34 29 88 3 5 15 0 0 1 9 5 5 11 97 99 100 81 4 42 100 100 100 11 100 100 100 100 5 100 78 0 2 3 0 0 2 1 0 0 0 0 0 0 0 0
5 6 64 65 44 35 54 0 0 0 0 0 0 0 0 5 70 71 69 90 94 97 27 100 100 76 5 65 99 100 100 100 100 100 14 51 93 72 10 4 1 0 0 0 0 0 0 0 0
0 1 3 75 83 63 54 0 0 0 5 5 3 0 0 4 3 5 74 100 69 10 62 87 56 100 100 100 96 100 100 100 100 97 100 49 100 98 33 6 5 2 3 0 0 0 0 0 0
0 1 0 2 32 46 6 6 5 5 5 5 4 0 0 0 0 4 44 4 58 52 76 52 99 100 100 98 33 99 100 100 100 67 99 100 62 98 100 100 82 35 5 0 0 0 0 0 0
0 0 0 0 1 5 6 3 4 1 1 5 5 3 0 0 0 0 2 5 77 100 88 98 82 88 100 33 41 85 72 75 100 100 60 100 100 98 86 93 5 27 16 6 25 2 0 0 0
0 0 0 0 0 0 0 4 70 0 3 10 79 5 3 0 0 4 0 5 22 99 93 100 100 100 100 100 100 99 47 100 100 100 80 100 100 100 100 98 21 5 7 94 5 3 0 0 0

GFSSGP_prec_cloud_246.txt.gz
Cloud_Cover
8 20 100 100 100 99 91 60 92 100 10 69 13 0 0 49 30 5 86 98 0 3 0 5 14 5 5 22 18 81 100 5 5 31 98 79 100 100 100 100 100 100 100 100 100 100 100 100 100
39 100 100 100 100 93 100 49 96 14 73 3 48 0 0 0 1 50 46 0 12 1 4 0 5 37 51 7 52 15 5 5 5 5 50 100 100 100 100 100 100 100 100 100 100 100 100 100 100
68 100 100 100 100 97 100 40 40 53 35 64 1 0 0 8 18 2 64 24 0 7 0 0 5 5 0 5 8 7 5 5 53 81 14 100 97 100 100 100 100 100 100 100 100 100 100 100 100
78 100 100 100 100 70 100 96 51 95 73 8 3 1 0 1 1 0 0 20 88 43 5 3 1 0 3 4 98 100 88 82 96 24 5 52 12 20 100 100 100 100 100 100 34 15 100 91 100
100 100 100 100 100 90 64 38 98 91 46 9 5 0 13 30 0 12 75 21 0 0 0 5 0 0 0 4 25 69 100 100 92 28 100 18 58 5 100 25 100 86 100 100 51 17 12 33 20
100 100 100 100 65 91 56 23 98 88 82 40 0 2 6 3 1 28 11 74 21 0 0 3 3 0 0 6 0 5 7 9 9 4 5 22 20 6 5 5 29 6 5 37 5 90 100 6 5
92 100 100 62 99 100 36 12 95 18 93 100 5 0 1 9 24 42 92 100 7 2 1 0 9 0 0 0 0 0 4 5 29 18 39 24 5 2 8 5 5 3 5 5 5 3 4 0 0
52 100 100 60 98 99 63 36 20 88 89 100 5 0 4 3 2 38 50 64 98 0 5 0 0 0 0 7 4 5 5 5 5 5 2 96 62 3 1 4 5 5 5 0 0 0 0 0 0
50 100 100 100 100 30 78 26 5 29 61 100 22 4 0 8 2 89 47 60 100 37 8 1 3 7 5 5 5 4 0 5 10 67 0 0 3 1 5 5 3 0 0 0 0 0 2 1 0
100 100 100 100 100 84 78 61 5 90 54 27 23 30 4 8 67 0 42 20 20 57 79 4 17 5 5 5 65 92 35 20 35 55 8 19 51 9 5 5 3 2 0 0 0 2 1 79 13
96 100 100 100 89 50 73 83 100 66 81 70 71 72 5 0 79 2 0 56 39 20 86 5 35 88 20 65 48 6 16 63 31 98 29 13 52 5 5 5 6 0 0 0 0 19 99 100 17
77 42 84 66 65 37 5 100 98 100 95 88 66 100 21 0 12 27 5 16 14 78 84 29 51 100 100 36 5 100 22 5 7 10 5 15 21 18 0 0 0 0 0 0 95 28 8 58 5
100 61 65 77 68 5 25 52 72 100 100 97 100 100 11 10 7 84 13 32 21 42 74 42 25 30 6 5 26 100 100 8 98 30 28 30 0 41 72 0 1 1 14 71 72 15 44 57 8
100 98 23 99 96 16 51 61 15 5 68 99 100 83 36 10 5 7 25 26 4 42 47 5 50 92 42 86 72 76 31 67 100 55 66 86 30 1 8 3 79 90 0 99 0 9 95 100 61
100 73 98 90 46 12 97 52 100 71 100 66 100 100 86 6 5 6 5 71 5 4 25 3 0 0 83 0 2 96 36 66 33 0 96 80 54 15 0 73 18 53 22 3 0 0 6 28 3
56 95 100 100 74 69 5 82 90 41 20 95 98 100 97 16 0 4 51 9 1 15 99 5 7 0 0 1 14 97 62 62 7 0 0 0 0 69 29 0 0 0 0 0 0 6 98 24 0
57 65 100 75 32 93 5 9 100 10 19 62 80 100 81 3 0 2 3 49 0 10 45 10 66 0 0 0 41 1 18 86 0 0 0 0 0 0 100 8 0 0 15 28 15 100 0 0 12
46 62 62 4 99 100 95 2 1 1 51 7 26 23 5 5 0 17 3 3 0 0 41 58 63 3 6 0 36 0 2 86 0 10 0 0 0 0 97 24 0 0 74 13 100 0 0 13 11
100 99 88 88 8 100 34 75 0 1 0 12 14 12 14 14 0 3 86 4 1 2 4 68 88 3 0 79 98 89 22 72 100 47 7 0 0 0 38 19 0 0 90 18 0 0 0 0 0
98 72 75 98 93 5 7 67 21 2 0 0 45 8 31 5 8 2 2 0 0 0 0 88 100 49 0 13 99 61 8 99 10 0 38 19 0 0 0 1 0 80 40 0 0 0 0 0 0
26 98 93 100 88 5 3 31 100 28 49 0 0 88 25 21 6 0 0 0 0 0 0 4 100 100 0 88 20 23 89 26 3 99 9 83 15 0 18 1 0 17 67 0 0 0 0 0 0
5 11 19 88 87 12 100 4 63 11 81 0 0 10 15 23 9 5 2 0 0 0 0 15 100 59 21 4 99 87 1 80 100 46 0 0 11 0 0 0 0 0 55 94 0 0 0 0 0
5 74 93 99 90 71 46 59 99 5 1 0 0 0 2 93 19 5 5 0 0 4 24 5 95 5 0 4 100 100 78 48 2 19 0 0 0 1 0 0 0 0 0 0 0 0 0 0 0
56 59 92 87 97 46 78 93 94 20 61 43 61 0 0 21 42 5 6 4 1 6 13 0 75 100 87 1 98 100 100 47 29 100 69 0 1 0 98 4 0 0 0 0 0 0 0 0 0
5 8 35 100 72 5 49 35 100 47 97 26 100 8 0 50 93 5 5 7 49 57 22 2 29 100 100 99 2 84 69 100 100 80 31 0 4 3 5 3 0 1 1 0 0 0 0 0 0
5 10 10 28 75 93 44 32 59 93 66 5 5 82 0 0 73 80 5 5 5 98 100 4 14 100 100 100 100 97 5 73 100 100 8 5 26 78 4 24 28 23 9 3 0 0 0 0 0
5 92 0 100 100 98 99 34 18 100 27 62 5 5 0 0 1 1 5 5 5 25 74 5 54 8 98 100 100 100 7 6 100 100 100 100 31 66 34 63 90 32 0 5 2 0 0 1 1
10 23 49 71 32 99 30 100 93 90 5 0 0 0 7 0 58 80 44 5 13 19 5 76 62 96 100 100 100 100 100 7 100 92 100 100 100 98 74 88 56 11 0 3 5 5 2 5 5
11 3 78 61 11 91 82 73 54 88 100 96 30 3 63 0 0 61 21 1 2 2 5 8 5 15 100 80 100 100 97 94 100 100 100 100 86 19 100 100 38 79 97 22 89 31 27 96 93
54 4 7 80 24 2 88 33 100 71 99 76 100 99 54 4 24 3 89 98 0 0 0 5 5 5 6 90 0 2 0 90 88 34 99 100 100 100 95 100 98 5 79 29 82 98 18 100 100

GFSSGP_prec_cloud_249.txt.gz
Cloud_Cover
100 100 100 100 64 100 100 100 60 5 1 0 0 66 1 0 12 12 8 0 1 8 40 87 100 58 32 100 96 15 5 6 24 26 96 100 100 100 100 100 100 100 100 100 100 100 100 100 100
100 100 100 100 100 67 63 100 97 5 2 0 4 0 0 11 0 4 55 3 0 2 5 5 28 59 58 12 87 19 62 6 5 5 100 100 100 100 100 100 100 100 100 100 100 100 100 100 100
100 100 100 100 100 76 88 46 83 45 52 0 5 0 0 0 0 11 0 0 0 0 5 4 3 2 5 2 5 16 5 5 5 50 100 100 100 100 100 100 100 100 100 100 100 100 100 100 100
100 100 100 100 100 100 92 99 95 7 90 5 0 10 0 0 0 15 0 0 0 0 0 0 0 0 1 8 5 2 5 97 27 100 100 88 100 100 100 100 99 98 100 100 100 100 100 100 100
100 100 100 100 100 100 61 99 5 86 100 6 0 4 0 0 0 0 0 0 0 0 0 0 0 0 1 5 5 18 5 5 88 73 55 98 100 100 100 84 100 78 100 100 100 82 83 11 48
100 100 100 100 100 97 15 86 50 84 100 4 0 1 1 38 14 0 0 0 0 0 0 0 0 0 4 3 5 44 100 85 5 35 30 59 21 98 68 52 100 100 91 99 100 100 10 97 100
100 100 100 100 100 47 17 97 7 48 98 38 0 0 10 51 11 7 12 0 0 0 0 0 0 0 0 0 0 0 0 7 1 2 36 49 5 5 64 33 17 61 5 8 66 95 5 1 0
100 100 100 100 100 64 10 100 100 24 45 71 5 0 9 100 30 30 60 0 0 0 0 0 0 0 5 1 0 0 0 5 1 5 3 0 0 0 0 0 0 0 0 2 5 0 0 0 0
100 100 100 100 100 100 61 17 85 20 5 63 26 3 1 1 2 29 2 0 0 0 0 0 0 0 0 5 5 4 4 0 2 1 4 62 17 0 0 0 0 0 0 0 1 22 0 2 23
100 100 100 100 100 91 80 48 5 5 76 39 98 100 2 90 78 0 0 5 0 0 0 4 0 5 2 4 5 4 5 0 44 48 3 0 0 0 0 0 0 0 0 0 2 4 0 0 52
100 100 100 100 100 100 24 54 85 21 100 56 98 71 5 33 55 56 7 31 0 0 5 5 5 5 75 98 91 57 5 40 63 99 7 4 0 0 0 0 4 0 0 0 0 90 0 0 1
100 100 100 100 100 97 50 86 92 97 55 95 95 43 23 24 0 18 99 0 55 100 12 5 31 12 100 96 79 65 74 5 5 0 5 5 5 0 0 0 0 0 0 28 0 0 0 0 0
100 100 100 100 100 98 10 60 25 13 5 5 93 79 87 6 0 4 2 0 100 26 6 1 76 78 98 100 99 6 71 5 0 5 1 0 0 0 0 0 0 0 1 0 0 0 0 2 3
100 100 78 55 72 100 70 24 5 8 5 77 73 29 98 62 40 3 8 10 100 66 1 0 5 3 0 5 22 2 4 26 0 0 0 0 0 0 0 18 0 0 0 0 44 7 0 0 0
100 36 25 80 95 100 13 6 68 98 70 87 5 5 100 5 25 19 0 0 0 5 1 1 0 0 2 10 5 0 0 1 0 0 28 0 0 0 0 93 0 0 0 0 0 16 0 0 1
94 91 62 100 82 41 20 19 5 100 94 5 100 99 82 5 0 0 0 17 0 0 4 5 0 0 0 0 0 22 1 18 0 0 0 0 0 0 68 30 0 0 0 0 49 20 0 0 0
100 95 18 100 100 100 81 10 10 38 0 5 33 66 8 2 0 0 0 0 0 0 0 4 0 0 5 0 1 5 22 0 0 0 0 0 0 0 0 0 0 0 0 18 28 0 0 26 2
18 34 94 100 83 94 94 92 0 1 0 44 5 5 4 0 0 0 2 4 0 0 0 4 5 0 3 11 29 98 43 4 0 0 0 0 0 0 0 0 0 0 0 0 0 0 0 0 3
91 100 92 19 100 99 100 100 5 3 42 2 37 5 5 4 0 0 0 1 0 0 0 0 29 3 0 77 1 10 79 42 0 0 0 0 0 16 0 0 0 78 5 2 0 0 0 0 0
10 7 59 100 35 87 67 61 8 5 6 11 0 1 4 5 1 0 0 0 0 0 0 2 24 6 0 5 0 39 96 1 4 9 0 0 0 0 0 0 0 34 49 3 0 0 0 0 0
5 5 58 99 81 99 94 61 0 47 1 0 0 0 0 0 5 0 0 0 0 0 0 0 55 5 0 1 13 21 12 2 34 0 4 0 0 0 0 0 0 74 1 0 0 0 0 0 0
0 5 18 78 100 100 94 25 0 0 0 0 0 0 0 0 5 5 0 2 0 0 0 0 15 43 1 5 94 84 1 2 0 6 0 0 0 0 0 0 0 0 0 0 0 0 0 0 0
0 4 90 100 75 73 79 59 0 10 0 0 12 2 0 0 4 5 5 0 5 0 0 0 5 34 2 0 7 100 27 0 21 25 0 0 0 0 0 0 0 0 0 0 0 0 0 0 0
4 4 87 88 100 16 56 5 4 88 4 5 5 4 0 0 0 2 5 0 1 0 0 4 8 11 4 11 5 78 100 88 75 35 2 0 0 1 1 1 0 0 0 0 0 0 0 0 0
5 2 27 66 57 7 99 26 2 5 5 28 22 7 4 0 0 0 5 2 5 5 1 0 81 2 41 100 99 62 100 25 100 100 74 31 5 0 2 96 33 0 0 0 0 0 0 0 0
5 42 12 32 5 1 1 2 0 1 66 3 5 79 4 0 0 0 0 5 2 2 2 1 50 52 93 100 100 100 99 34 99 100 100 27 99 10 2 8 47 2 0 0 0 0 0 0 0
0 86 1 61 5 64 77 12 97 100 63 5 4 1 0 0 0 0 5 5 4 0 4 5 69 100 39 100 100 98 100 100 94 100 100 100 100 100 65 69 53 4 53 0 15 0 2 70 86
0 0 43 34 2 52 15 94 58 95 6 14 4 4 0 0 0 0 0 1 0 0 5 5 41 96 6 100 99 96 100 100 73 85 100 100 100 100 40 99 94 67 20 0 95 32 64 43 99
0 0 34 100 29 2 1 3 93 77 100 47 12 6 1 0 0 0 0 0 2 3 0 5 4 5 32 49 100 100 100 100 99 62 100 100 100 100 100 100 100 100 70 49 44 86 72 36 13
0 64 62 100 24 0 25 1 98 100 66 85 100 6 4 1 0 1 0 0 0 0 0 5 5 2 5 5 6 100 100 100 100 100 86 100 100 87 100 100 100 100 99 21 100 100 100 100 87